When you browse on this site, cookies collect data to enhance your experience and personalize the content and advertising you see.
Visit our Privacy Policy to learn more. By continuing to use the site, you agree to this use of cookies and data.
  • In Hungary
  • List of Countries
  • For 7 days
  • Water Temperature
  • Satellite Maps
  • Weather Map
  • News
  • Weather Widgets
  • user-avatar
    Login

    Hourly Weather Kaimganj

    Today, 20 July, Saturday

    Time Temperature Precipitation Wind Pressure Humidity
    00:00 +36°C° 0 mm 1 mps 736 mmHg 49%
    01:00 +35°C° 0 mm 1 mps 736 mmHg 50%
    02:00 +35°C° 0 mm 1 mps 736 mmHg 51%
    03:00 +34°C° 0 mm 1 mps 736 mmHg 52%
    04:00 +34°C° 0 mm 1 mps 736 mmHg 53%
    05:00 +33°C° 0 mm 1 mps 737 mmHg 58%
    06:00 +35°C° 0 mm 1 mps 737 mmHg 54%
    07:00 +37°C° 0 mm 2 mps 738 mmHg 51%
    08:00 +38°C° 0 mm 2 mps 738 mmHg 47%
    09:00 +39°C° 0 mm 2 mps 738 mmHg 43%
    10:00 +40°C° 0 mm 2 mps 738 mmHg 39%
    11:00 +41°C° 0 mm 2 mps 738 mmHg 36%
    12:00 +41°C° 0 mm 2 mps 737 mmHg 36%
    13:00 +41°C° 0 mm 2 mps 737 mmHg 36%
    14:00 +41°C° 0 mm 2 mps 736 mmHg 36%
    15:00 +41°C° 0 mm 1 mps 736 mmHg 35%
    16:00 +41°C° 0 mm 1 mps 735 mmHg 34%
    17:00 +38°C° 0 mm 0 mps 734 mmHg 33%
    18:00 +40°C° 0 mm 1 mps 735 mmHg 35%
    19:00 +40°C° 0 mm 1 mps 735 mmHg 37%
    20:00 +39°C° 0 mm 1 mps 735 mmHg 39%
    21:00 +39°C° 0 mm 1 mps 735 mmHg 41%
    22:00 +37°C° 0 mm 1 mps 735 mmHg 42%
    23:00 +37°C° 0 mm 1 mps 736 mmHg 43%

    Tomorrow, 21 July, Sunday

    Time Temperature Precipitation Wind Pressure Humidity
    00:00 +36°C° 0 mm 1 mps 735 mmHg 44%
    01:00 +36°C° 0 mm 1 mps 735 mmHg 45%
    02:00 +36°C° 0 mm 1 mps 735 mmHg 45%
    03:00 +35°C° 0 mm 1 mps 735 mmHg 47%
    04:00 +36°C° 0 mm 2 mps 735 mmHg 48%
    05:00 +36°C° 0 mm 2 mps 735 mmHg 50%
    06:00 +37°C° 0 mm 2 mps 736 mmHg 47%
    07:00 +38°C° 0 mm 3 mps 736 mmHg 44%
    08:00 +39°C° 0 mm 3 mps 737 mmHg 41%
    09:00 +40°C° 0 mm 3 mps 737 mmHg 38%
    10:00 +41°C° 0 mm 2 mps 737 mmHg 35%
    11:00 +42°C° 0 mm 2 mps 737 mmHg 31%
    12:00 +42°C° 0 mm 2 mps 736 mmHg 31%
    13:00 +42°C° 0 mm 1 mps 736 mmHg 31%
    14:00 +42°C° 0 mm 1 mps 735 mmHg 31%
    15:00 +42°C° 0 mm 1 mps 735 mmHg 32%
    16:00 +42°C° 0 mm 1 mps 734 mmHg 32%
    17:00 +42°C° 0 mm 1 mps 734 mmHg 32%
    18:00 +41°C° 0 mm 1 mps 734 mmHg 34%
    19:00 +41°C° 0 mm 1 mps 734 mmHg 36%
    20:00 +40°C° 0 mm 1 mps 734 mmHg 38%
    21:00 +39°C° 0 mm 1 mps 734 mmHg 39%
    22:00 +39°C° 0 mm 1 mps 734 mmHg 40%
    23:00 +39°C° 0 mm 1 mps 734 mmHg 41%

    Day after tomorrow, 22 July, Monday

    Time Temperature Precipitation Wind Pressure Humidity
    00:00 +37°C° 0 mm 1 mps 734 mmHg 41%
    01:00 +37°C° 0 mm 1 mps 734 mmHg 42%
    02:00 +37°C° 0 mm 1 mps 734 mmHg 43%
    03:00 +36°C° 0 mm 1 mps 734 mmHg 44%
    04:00 +36°C° 0 mm 1 mps 734 mmHg 45%
    05:00 +36°C° 0 mm 1 mps 734 mmHg 46%
    06:00 +38°C° 0 mm 2 mps 734 mmHg 45%
    07:00 +38°C° 0 mm 2 mps 735 mmHg 44%
    08:00 +38°C° 0 mm 2 mps 735 mmHg 43%
    09:00 +40°C° 0 mm 2 mps 735 mmHg 40%
    10:00 +41°C° 0 mm 2 mps 735 mmHg 37%
    11:00 +42°C° 0 mm 2 mps 735 mmHg 34%
    12:00 +43°C° 0 mm 2 mps 734 mmHg 32%
    13:00 +43°C° 0 mm 2 mps 734 mmHg 31%
    14:00 +45°C° 0 mm 3 mps 733 mmHg 29%
    15:00 +45°C° 0 mm 2 mps 733 mmHg 29%
    16:00 +43°C° 0 mm 2 mps 733 mmHg 30%
    17:00 +43°C° 0 mm 1 mps 732 mmHg 30%
    18:00 +42°C° 0 mm 1 mps 733 mmHg 32%
    19:00 +42°C° 0 mm 1 mps 733 mmHg 34%
    20:00 +41°C° 0 mm 1 mps 733 mmHg 36%
    21:00 +40°C° 0 mm 1 mps 733 mmHg 38%
    22:00 +40°C° 0 mm 2 mps 733 mmHg 39%
    23:00 +39°C° 0 mm 2 mps 733 mmHg 40%

    23 July, Tuesday

    Time Temperature Precipitation Wind Pressure Humidity
    00:00 +39°C° 0 mm 2 mps 733 mmHg 42%
    01:00 +38°C° 0 mm 2 mps 733 mmHg 44%
    02:00 +38°C° 0 mm 2 mps 733 mmHg 45%
    03:00 +37°C° 0 mm 3 mps 733 mmHg 49%
    04:00 +36°C° 0 mm 4 mps 733 mmHg 52%
    05:00 +36°C° 0 mm 5 mps 733 mmHg 55%
    06:00 +36°C° 0 mm 5 mps 734 mmHg 56%
    07:00 +36°C° 0 mm 5 mps 734 mmHg 56%
    08:00 +37°C° 0 mm 5 mps 735 mmHg 57%
    09:00 +38°C° 0 mm 4 mps 735 mmHg 52%
    10:00 +41°C° 0 mm 4 mps 735 mmHg 46%
    11:00 +42°C° 0 mm 3 mps 735 mmHg 41%
    12:00 +42°C° 0 mm 2 mps 734 mmHg 37%
    13:00 +43°C° 0 mm 2 mps 733 mmHg 33%
    14:00 +44°C° 0 mm 1 mps 733 mmHg 29%
    15:00 +45°C° 0 mm 2 mps 733 mmHg 31%
    16:00 +43°C° 0 mm 2 mps 732 mmHg 32%
    17:00 +43°C° 0 mm 2 mps 732 mmHg 34%
    18:00 +42°C° 0.6 mm 4 mps 732 mmHg 42%
    19:00 +40°C° 0.6 mm 6 mps 733 mmHg 51%
    20:00 +38°C° 0.6 mm 7 mps 733 mmHg 59%
    21:00 +36°C° 0 mm 7 mps 733 mmHg 63%
    22:00 +35°C° 0 mm 7 mps 734 mmHg 67%
    23:00 +34°C° 0 mm 7 mps 734 mmHg 70%

    24 July, Wednesday

    Time Temperature Precipitation Wind Pressure Humidity
    00:00 +34°C° 0 mm 6 mps 734 mmHg 71%
    01:00 +34°C° 0 mm 6 mps 734 mmHg 71%
    02:00 +33°C° 0 mm 6 mps 734 mmHg 71%
    03:00 +33°C° 0.6 mm 6 mps 734 mmHg 73%
    04:00 +32°C° 0.6 mm 5 mps 734 mmHg 75%
    05:00 +32°C° 0.6 mm 5 mps 734 mmHg 77%
    06:00 +32°C° 0.7 mm 5 mps 734 mmHg 75%
    07:00 +33°C° 0.7 mm 6 mps 735 mmHg 73%
    08:00 +34°C° 0.7 mm 6 mps 735 mmHg 70%
    09:00 +34°C° 0 mm 5 mps 736 mmHg 68%
    10:00 +35°C° 0 mm 5 mps 736 mmHg 66%
    11:00 +35°C° 0 mm 5 mps 736 mmHg 64%
    12:00 +36°C° 0.2 mm 5 mps 735 mmHg 62%
    13:00 +36°C° 0.2 mm 5 mps 735 mmHg 60%
    14:00 +37°C° 0.2 mm 5 mps 734 mmHg 58%
    15:00 +37°C° 0.8 mm 5 mps 734 mmHg 59%
    16:00 +36°C° 0.8 mm 5 mps 734 mmHg 61%
    17:00 +36°C° 0.8 mm 5 mps 733 mmHg 62%
    18:00 +35°C° 1.4 mm 4 mps 733 mmHg 65%
    19:00 +34°C° 1.4 mm 4 mps 733 mmHg 68%
    20:00 +34°C° 1.4 mm 3 mps 734 mmHg 71%
    21:00 +34°C° 0.6 mm 3 mps 734 mmHg 71%
    22:00 +34°C° 0.6 mm 3 mps 734 mmHg 72%
    23:00 +34°C° 0.6 mm 3 mps 735 mmHg 73%

    25 July, Thursday

    Time Temperature Precipitation Wind Pressure Humidity
    00:00 +32°C° 1.1 mm 2 mps 734 mmHg 75%
    01:00 +32°C° 1.1 mm 2 mps 734 mmHg 76%
    02:00 +31°C° 1.1 mm 1 mps 734 mmHg 78%
    03:00 +31°C° 0.7 mm 2 mps 734 mmHg 78%
    04:00 +31°C° 0.7 mm 2 mps 734 mmHg 79%
    05:00 +31°C° 0.7 mm 3 mps 734 mmHg 79%
    06:00 +31°C° 2.1 mm 3 mps 735 mmHg 77%
    07:00 +32°C° 2.1 mm 2 mps 735 mmHg 75%
    08:00 +32°C° 2.1 mm 2 mps 736 mmHg 73%
    09:00 +31°C° 1.7 mm 2 mps 736 mmHg 76%
    10:00 +31°C° 1.7 mm 2 mps 736 mmHg 79%
    11:00 +30°C° 1.7 mm 2 mps 736 mmHg 81%
    12:00 +30°C° 0.7 mm 2 mps 736 mmHg 81%
    13:00 +30°C° 0.7 mm 2 mps 736 mmHg 81%
    14:00 +30°C° 0.7 mm 2 mps 735 mmHg 81%
    15:00 +30°C° 0.2 mm 2 mps 735 mmHg 81%
    16:00 +30°C° 0.2 mm 2 mps 735 mmHg 82%
    17:00 +30°C° 0.2 mm 2 mps 734 mmHg 83%
    18:00 +30°C° 0 mm 2 mps 735 mmHg 84%
    19:00 +29°C° 0 mm 2 mps 735 mmHg 85%
    20:00 +29°C° 0 mm 2 mps 735 mmHg 85%
    21:00 +29°C° 0.7 mm 2 mps 735 mmHg 86%
    22:00 +29°C° 0.7 mm 2 mps 735 mmHg 86%
    23:00 +29°C° 0.7 mm 1 mps 735 mmHg 86%
    Show more